LRBC Weather Reports


Display with metric or nautical units.
time (UTC)temp
F
wind
direction
speed
MPH
gust
MPH
rain 1hr
in
rain 24hr
in
rain mn
in
humidity
%
barometer
mb
20260507024844 52 160 14.0 0.0 0.00 0.00 0.00 82 1015.0
20260507023347 52 160 14.0 0.0 0.00 0.00 0.00 82 1015.0
20260507021847 52 160 14.0 0.0 0.00 0.00 0.00 82 1014.0
20260507020347 52 160 14.0 0.0 0.00 0.00 0.00 82 1014.0
20260507014847 52 170 13.0 0.0 0.00 0.00 0.00 77 1014.0
20260507013347 52 170 13.0 0.0 0.00 0.00 0.00 77 1014.0
20260507011847 52 170 13.0 0.0 0.00 0.00 0.00 77 1014.0
20260507010348 52 170 13.0 0.0 0.00 0.00 0.00 77 1014.0
20260507004847 54 180 13.0 0.0 0.00 0.00 0.00 77 1014.0
20260507003348 54 170 13.0 0.0 0.00 0.00 0.00 77 1014.0
20260507001847 54 170 13.0 0.0 0.00 0.00 0.00 77 1014.0
20260507000347 54 170 13.0 0.0 0.00 0.00 0.00 77 1014.0
20260506234847 54 160 14.0 0.0 0.00 0.00 0.00 77 1014.0
20260506233347 55 170 11.0 0.0 0.00 0.00 0.00 72 1015.0
20260506231845 55 170 11.0 0.0 0.00 0.00 0.00 72 1015.0
20260506230347 55 180 11.0 0.0 0.00 0.00 0.00 67 1014.0
20260506224844 55 170 13.0 0.0 0.00 0.00 0.00 72 1015.0
20260506223347 55 170 13.0 0.0 0.00 0.00 0.00 72 1015.0
20260506221847 55 170 13.0 0.0 0.00 0.00 0.00 72 1015.0
20260506220346 55 170 13.0 0.0 0.00 0.00 0.00 72 1015.0
20260506214900 57 170 13.0 0.0 0.00 0.00 0.00 67 1014.0
20260506213347 59 160 15.0 0.0 0.00 0.00 0.00 63 1014.0
20260506211841 59 160 15.0 0.0 0.00 0.00 0.00 63 1014.0
20260506210347 59 160 15.0 0.0 0.00 0.00 0.00 63 1014.0
20260506204848 61 160 15.0 0.0 0.00 0.00 0.00 55 1014.0
20260506203347 61 160 15.0 0.0 0.00 0.00 0.00 55 1014.0
20260506201841 61 160 15.0 0.0 0.00 0.00 0.00 55 1014.0
20260506200347 61 160 15.0 0.0 0.00 0.00 0.00 55 1014.0
20260506194903 63 160 16.0 0.0 0.00 0.00 0.00 52 1014.0
20260506193411 63 160 16.0 0.0 0.00 0.00 0.00 52 1014.0
20260506191848 64 160 16.0 0.0 0.00 0.00 0.00 52 1014.0
20260506190347 64 160 16.0 0.0 0.00 0.00 0.00 52 1014.0
20260506184850 66 150 15.0 0.0 0.00 0.00 0.00 49 1013.0
20260506183347 66 150 15.0 0.0 0.00 0.00 0.00 49 1013.0
20260506181847 66 150 15.0 0.0 0.00 0.00 0.00 49 1013.0
20260506180348 66 150 15.0 0.0 0.00 0.00 0.00 49 1013.0
20260506174848 68 150 16.0 0.0 0.00 0.00 0.00 46 1013.0
20260506173347 68 150 16.0 0.0 0.00 0.00 0.00 46 1013.0
20260506171848 70 150 16.0 0.0 0.00 0.00 0.00 43 1013.0
20260506170347 70 150 16.0 0.0 0.00 0.00 0.00 43 1013.0
20260506164847 72 150 16.0 0.0 0.00 0.00 0.00 41 1013.0
20260506163347 72 150 16.0 0.0 0.00 0.00 0.00 41 1013.0
20260506161848 73 150 15.0 0.0 0.00 0.00 0.00 41 1012.0
20260506160347 73 150 15.0 0.0 0.00 0.00 0.00 41 1012.0
20260506154848 75 140 16.0 0.0 0.00 0.00 0.00 36 1012.0
20260506153347 75 140 16.0 0.0 0.00 0.00 0.00 36 1012.0
20260506151847 75 150 18.0 0.0 0.00 0.00 0.00 36 1013.0
20260506150353 75 150 18.0 0.0 0.00 0.00 0.00 36 1013.0
20260506144847 75 150 18.0 0.0 0.00 0.00 0.00 34 1013.0
20260506143359 75 150 18.0 0.0 0.00 0.00 0.00 34 1013.0
20260506141847 77 150 20.0 0.0 0.00 0.00 0.00 32 1013.0
20260506140508 77 150 20.0 0.0 0.00 0.00 0.00 32 1013.0
20260506134912 77 150 20.0 0.0 0.00 0.00 0.00 32 1013.0
20260506133347 77 150 20.0 0.0 0.00 0.00 0.00 32 1013.0
20260506131847 77 160 20.0 0.0 0.00 0.00 0.00 32 1013.0
20260506130356 77 160 20.0 0.0 0.00 0.00 0.00 32 1013.0
20260506124848 77 160 20.0 0.0 0.00 0.00 0.00 34 1013.0
20260506123347 77 160 20.0 0.0 0.00 0.00 0.00 34 1013.0
20260506121848 77 160 18.0 0.0 0.00 0.00 0.00 34 1013.0
20260506120347 77 160 18.0 0.0 0.00 0.00 0.00 34 1013.0
20260506114847 77 150 17.0 0.0 0.00 0.00 0.00 32 1013.0
20260506113348 77 150 17.0 0.0 0.00 0.00 0.00 32 1013.0
20260506111847 75 150 17.0 0.0 0.00 0.00 0.00 34 1014.0
20260506110347 75 150 17.0 0.0 0.00 0.00 0.00 34 1014.0
20260506104847 75 150 16.0 0.0 0.00 0.00 0.00 34 1014.0
20260506103348 75 150 16.0 0.0 0.00 0.00 0.00 34 1014.0
20260506101848 73 150 16.0 0.0 0.00 0.00 0.00 38 1014.0
20260506100347 73 150 16.0 0.0 0.00 0.00 0.00 38 1014.0
20260506094848 72 170 17.0 0.0 0.00 0.00 0.00 41 1014.0
20260506093347 72 170 17.0 0.0 0.00 0.00 0.00 41 1014.0
20260506091847 72 160 16.0 0.0 0.00 0.00 0.00 41 1014.0
20260506090347 72 160 16.0 0.0 0.00 0.00 0.00 41 1014.0
20260506084847 70 170 14.0 0.0 0.00 0.00 0.00 46 1014.0
20260506083347 70 170 14.0 0.0 0.00 0.00 0.00 46 1014.0
20260506081844 68 170 11.0 0.0 0.00 0.00 0.00 49 1014.0
20260506080347 68 170 11.0 0.0 0.00 0.00 0.00 49 1014.0
20260506073347 64 170 9.0 0.0 0.00 0.00 0.00 56 1014.0
20260506071847 63 160 8.0 0.0 0.00 0.00 0.00 59 1014.0
20260506070347 63 160 8.0 0.0 0.00 0.00 0.00 59 1014.0
20260506061848 57 160 9.0 0.0 0.00 0.00 0.00 63 1014.0
20260506060349 57 160 9.0 0.0 0.00 0.00 0.00 63 1014.0
20260506050401 54 170 8.0 0.0 0.00 0.00 0.00 67 1014.0
20260506044903 50 170 9.0 0.0 0.00 0.00 0.00 76 1014.0
20260506043351 50 170 9.0 0.0 0.00 0.00 0.00 76 1014.0
20260506041848 48 170 7.0 0.0 0.00 0.00 0.00 82 1014.0
20260506040348 48 170 7.0 0.0 0.00 0.00 0.00 82 1014.0
20260506034848 46 180 6.0 0.0 0.00 0.00 0.00 87 1014.0
20260506033347 46 180 6.0 0.0 0.00 0.00 0.00 87 1014.0
20260506031847 46 180 8.0 0.0 0.00 0.00 0.00 82 1014.0
20260506030347 46 180 8.0 0.0 0.00 0.00 0.00 82 1014.0